TimeCDT,TemperatureF,Dew PointF,Humidity,Sea Level PressureIn,VisibilityMPH,Wind Direction,Wind SpeedMPH,Gust SpeedMPH,PrecipitationIn,Events,Conditions,WindDirDegrees,DateUTC
12:09 AM,60.8,51.8,72,30.04,10.0,West,4.6,-,N/A,,Clear,260,2013-08-01 05:09:00
12:30 AM,60.8,51.8,72,30.05,10.0,West,5.8,-,N/A,,Clear,270,2013-08-01 05:30:00
12:49 AM,60.8,51.8,72,30.05,10.0,West,3.5,-,N/A,,Clear,260,2013-08-01 05:49:00
1:09 AM,57.2,51.8,82,30.05,10.0,West,4.6,-,N/A,,Clear,270,2013-08-01 06:09:00
1:30 AM,57.2,51.8,82,30.04,10.0,West,3.5,-,N/A,,Clear,270,2013-08-01 06:30:00
1:49 AM,57.2,51.8,82,30.04,10.0,West,4.6,-,N/A,,Clear,270,2013-08-01 06:49:00
2:09 AM,55.4,51.8,88,30.04,10.0,West,3.5,-,N/A,,Clear,260,2013-08-01 07:09:00
2:30 AM,55.4,51.8,88,30.04,10.0,West,4.6,-,N/A,,Clear,260,2013-08-01 07:30:00
2:49 AM,55.4,51.8,88,30.04,10.0,Calm,Calm,-,N/A,,Clear,0,2013-08-01 07:49:00
3:09 AM,53.6,51.8,94,30.04,10.0,Calm,Calm,-,N/A,,Clear,0,2013-08-01 08:09:00
3:29 AM,53.6,51.8,94,30.04,10.0,Calm,Calm,-,N/A,,Clear,0,2013-08-01 08:29:00
3:49 AM,53.6,51.8,94,30.04,10.0,Calm,Calm,-,N/A,,Clear,0,2013-08-01 08:49:00
4:10 AM,53.6,51.8,94,30.04,10.0,Calm,Calm,-,N/A,,Clear,0,2013-08-01 09:10:00
4:29 AM,53.6,51.8,94,30.04,10.0,Calm,Calm,-,N/A,,Clear,0,2013-08-01 09:29:00
4:49 AM,53.6,51.8,94,30.04,10.0,Calm,Calm,-,N/A,,Clear,0,2013-08-01 09:49:00
5:10 AM,51.8,50.0,94,30.04,10.0,Calm,Calm,-,N/A,,Clear,0,2013-08-01 10:10:00
5:29 AM,51.8,50.0,94,30.05,10.0,Calm,Calm,-,N/A,,Clear,0,2013-08-01 10:29:00
5:49 AM,50.0,48.2,94,30.05,10.0,Calm,Calm,-,N/A,,Clear,0,2013-08-01 10:49:00
6:10 AM,51.8,51.8,100,30.04,10.0,Calm,Calm,-,N/A,,Clear,0,2013-08-01 11:10:00
6:29 AM,53.6,51.8,94,30.05,10.0,Calm,Calm,-,N/A,,Clear,0,2013-08-01 11:29:00
6:49 AM,53.6,51.8,94,30.04,10.0,WSW,3.5,-,N/A,,Clear,250,2013-08-01 11:49:00
7:10 AM,57.2,53.6,88,30.05,10.0,Calm,Calm,-,N/A,,Clear,0,2013-08-01 12:10:00
7:29 AM,59.0,53.6,82,30.04,10.0,Calm,Calm,-,N/A,,Clear,0,2013-08-01 12:29:00
7:49 AM,60.8,53.6,77,30.04,10.0,West,3.5,-,N/A,,Clear,270,2013-08-01 12:49:00
8:09 AM,62.6,53.6,72,30.04,10.0,West,4.6,-,N/A,,Clear,280,2013-08-01 13:09:00
8:29 AM,64.4,55.4,73,30.05,10.0,WSW,4.6,-,N/A,,Clear,250,2013-08-01 13:29:00
8:50 AM,64.4,55.4,73,30.04,10.0,WSW,3.5,-,N/A,,Clear,240,2013-08-01 13:50:00
9:09 AM,66.2,55.4,68,30.04,10.0,West,5.8,-,N/A,,Clear,270,2013-08-01 14:09:00
9:29 AM,69.8,53.6,56,30.03,10.0,West,4.6,-,N/A,,Clear,270,2013-08-01 14:29:00
9:50 AM,69.8,53.6,56,30.04,10.0,West,6.9,-,N/A,,Clear,280,2013-08-01 14:50:00
10:09 AM,71.6,53.6,53,30.04,10.0,WSW,6.9,-,N/A,,Clear,250,2013-08-01 15:09:00
10:29 AM,71.6,55.4,57,30.04,10.0,WNW,8.1,-,N/A,,Clear,290,2013-08-01 15:29:00
10:49 AM,73.4,53.6,50,30.04,10.0,WNW,5.8,-,N/A,,Scattered Clouds,290,2013-08-01 15:49:00
11:09 AM,71.6,51.8,50,30.04,10.0,West,5.8,-,N/A,,Scattered Clouds,260,2013-08-01 16:09:00
11:29 AM,73.4,53.6,50,30.03,10.0,NW,6.9,-,N/A,,Mostly Cloudy,310,2013-08-01 16:29:00
11:49 AM,73.4,51.8,47,30.03,10.0,WNW,5.8,-,N/A,,Scattered Clouds,300,2013-08-01 16:49:00
12:09 PM,73.4,53.6,50,30.03,10.0,SW,4.6,-,N/A,,Scattered Clouds,230,2013-08-01 17:09:00
12:30 PM,73.4,55.4,53,30.03,10.0,WSW,4.6,-,N/A,,Mostly Cloudy,250,2013-08-01 17:30:00
12:49 PM,75.2,55.4,50,30.02,10.0,West,3.5,-,N/A,,Scattered Clouds,270,2013-08-01 17:49:00
1:09 PM,75.2,53.6,47,30.00,10.0,West,5.8,-,N/A,,Clear,270,2013-08-01 18:09:00
1:30 PM,75.2,53.6,47,30.00,10.0,SSW,3.5,-,N/A,,Clear,210,2013-08-01 18:30:00
1:49 PM,75.2,53.6,47,29.99,10.0,Calm,Calm,-,N/A,,Scattered Clouds,0,2013-08-01 18:49:00
2:09 PM,75.2,53.6,47,29.99,10.0,West,5.8,-,N/A,,Clear,280,2013-08-01 19:09:00
2:30 PM,77.0,53.6,44,29.98,10.0,West,5.8,-,N/A,,Clear,260,2013-08-01 19:30:00
2:49 PM,78.8,55.4,44,29.97,10.0,West,3.5,-,N/A,,Clear,280,2013-08-01 19:49:00
3:10 PM,77.0,53.6,44,29.97,10.0,Calm,Calm,-,N/A,,Clear,0,2013-08-01 20:10:00
3:29 PM,78.8,55.4,44,29.96,10.0,Calm,Calm,-,N/A,,Scattered Clouds,0,2013-08-01 20:29:00
3:49 PM,77.0,55.4,47,29.95,10.0,SW,4.6,-,N/A,,Scattered Clouds,220,2013-08-01 20:49:00
4:10 PM,78.8,55.4,44,29.95,10.0,West,3.5,-,N/A,,Scattered Clouds,260,2013-08-01 21:10:00
4:29 PM,78.8,55.4,44,29.94,10.0,SW,3.5,-,N/A,,Scattered Clouds,230,2013-08-01 21:29:00
4:49 PM,78.8,57.2,47,29.94,10.0,SSW,5.8,-,N/A,,Scattered Clouds,200,2013-08-01 21:49:00
5:10 PM,77.0,57.2,50,29.93,10.0,South,4.6,-,N/A,,Mostly Cloudy,190,2013-08-01 22:10:00
5:29 PM,78.8,57.2,47,29.92,10.0,Calm,Calm,-,N/A,,Mostly Cloudy,0,2013-08-01 22:29:00
5:49 PM,78.8,57.2,47,29.91,10.0,West,4.6,-,N/A,,Scattered Clouds,260,2013-08-01 22:49:00
6:10 PM,78.8,57.2,47,29.91,10.0,WSW,3.5,-,N/A,,Clear,240,2013-08-01 23:10:00
6:29 PM,77.0,57.2,50,29.90,10.0,Calm,Calm,-,N/A,,Clear,0,2013-08-01 23:29:00
6:49 PM,77.0,59.0,54,29.91,10.0,Calm,Calm,-,N/A,,Clear,0,2013-08-01 23:49:00
7:09 PM,75.2,60.8,61,29.90,10.0,Calm,Calm,-,N/A,,Clear,0,2013-08-02 00:09:00
7:29 PM,73.4,64.4,73,29.89,10.0,Calm,Calm,-,N/A,,Clear,0,2013-08-02 00:29:00
7:49 PM,73.4,64.4,73,29.89,10.0,Calm,Calm,-,N/A,,Clear,0,2013-08-02 00:49:00
8:09 PM,71.6,60.8,69,29.88,10.0,Calm,Calm,-,N/A,,Clear,0,2013-08-02 01:09:00
8:29 PM,66.2,62.6,88,29.88,10.0,Calm,Calm,-,N/A,,Clear,0,2013-08-02 01:29:00
8:50 PM,64.4,60.8,88,29.88,10.0,Calm,Calm,-,N/A,,Clear,0,2013-08-02 01:50:00
9:09 PM,64.4,60.8,88,29.88,10.0,Calm,Calm,-,N/A,,Scattered Clouds,0,2013-08-02 02:09:00
9:29 PM,62.6,60.8,94,29.88,10.0,Calm,Calm,-,N/A,,Clear,0,2013-08-02 02:29:00
9:50 PM,62.6,60.8,94,29.89,10.0,South,3.5,-,N/A,,Clear,190,2013-08-02 02:50:00
10:09 PM,62.6,60.8,94,29.89,10.0,Calm,Calm,-,N/A,,Scattered Clouds,0,2013-08-02 03:09:00
10:29 PM,62.6,60.8,94,29.89,10.0,Calm,Calm,-,N/A,,Scattered Clouds,0,2013-08-02 03:29:00
10:50 PM,62.6,60.8,94,29.89,10.0,Calm,Calm,-,N/A,,Scattered Clouds,0,2013-08-02 03:50:00
11:09 PM,60.8,59.0,94,29.89,10.0,WNW,3.5,-,N/A,,Clear,300,2013-08-02 04:09:00
11:30 PM,62.6,60.8,94,29.88,10.0,Calm,Calm,-,N/A,,Scattered Clouds,0,2013-08-02 04:30:00
11:49 PM,62.6,60.8,94,29.88,10.0,Calm,Calm,-,N/A,,Scattered Clouds,0,2013-08-02 04:49:00